Location: Ponte Samoggia
(44.5667°N, 11.1333°E)
Time: 22:45:20
(UTC+00:00)

Cosmos 2074 Rocket - Pass Details

Date: 26 May 2022
Orbit: 968 x 985 km, 82.9° (Epoch: 26 June)

Event Time Altitude Azimuth Distance (km) Brightness Sun altitude
Rises 01:20:49 0° 349° (N) 3,699 7.8 -18.1°
Reaches altitude 10° 01:23:21 10° 348° (NNW) 2,749 7.0 -17.9°
Maximum altitude 01:29:37 72° 266° (W) 1,033 4.0 -17.3°
Enters shadow 01:34:00 21° 185° (S) 2,055 5.2 -16.8°
